Regional Weather Roundup
Issued by NWS

Home | Current Version | Previous Version | Text Only | Print | Product List | Glossary Off
Versions: 1 2 3 4 5 6 7 8 9 10 11 12 13 14 15 16 17 18 19 20 21 22 23 24 25 26 27 28 29 30 31 32 33 34 35 36 37 38 39 40 41 42 43 44 45 46 47 48 49 50

093
ASUS43 KLSX 271557
RWRMO

WEATHER SUMMARY FOR MISSOURI
NATIONAL WEATHER SERVICE SPRINGFIELD MO
1100 AM CDT MON MAR 27 2017

NOTE: "FAIR" INDICATES FEW OR NO CLOUDS BELOW 12,000 FEET WITH NO
       SIGNIFICANT WEATHER AND/OR OBSTRUCTIONS TO VISIBILITY.
       CURRENT SKY AND/OR WEATHER CONDITIONS ARE NOT AVAILABLE FOR
       CHILLICOTHE AND FARMINGTON.

MOZ001>031-035>038-043-044-053-054-271700-
...NORTHERN AND WESTERN MISSOURI...

CITY           SKY/WX    TMP DP  RH WIND       PRES   REMARKS
KANSAS CTY INT CLOUDY    48  46  93 N12       29.93R
LEE`S SUMMIT   CLOUDY    48  47  96 NE10G20   29.90R
ST JOSEPH      CLOUDY    48  47  96 N12       29.95R
CHILLICOTHE      N/A     48  47  96 NE6       29.93R

$$
MOZ066>068-077>081-088>096-101>105-271700-
...SOUTHWEST MISSOURI...

CITY           SKY/WX    TMP DP  RH WIND       PRES   REMARKS
SPRINGFIELD    LGT RAIN  55  53  93 W8        29.85R FOG
JOPLIN         CLOUDY    54  53  97 NW6       29.88R FOG
BRANSON        CLOUDY    55  55 100 SE8       29.84R

$$
MOZ032>034-039>042-045>050-055>058-069>072-271700-
...CENTRAL MISSOURI...

CITY           SKY/WX    TMP DP  RH WIND       PRES   REMARKS
COLUMBIA       LGT RAIN  51  51 100 E12       29.85R FOG
JEFFERSON CITY LGT RAIN  56  52  86 E6        29.85R FOG
ROLLA          CLOUDY    55  55 100 E7        29.83S
SEDALIA        CLOUDY    50  49  96 N10       29.88R

$$
MOZ051-052-059>065-271700-
...EAST CENTRAL MISSOURI...

CITY           SKY/WX    TMP DP  RH WIND       PRES   REMARKS
ST LOUIS INTL  LGT RAIN  54  51  90 NE7       29.86F FOG

$$
MOZ072>076-082>087-097>100-106>115-271700-
...SOUTH CENTRAL AND SOUTHEAST MISSOURI...

CITY           SKY/WX    TMP DP  RH WIND       PRES   REMARKS
CAPE GIRARDEAU CLOUDY    63  56  78 SW17G23   29.87F
POPLAR BLUFF   LGT RAIN  59  57  93 SW8       29.89R
WEST PLAINS    RAIN      55  54  96 S8        29.85F FOG

$$



USA.gov is the U.S. government's official web portal to all federal, state and local government web resources and services.